DJ3AN Weather Reports


time (UTC)temp
C
wind
direction
speed
KPH
gust
KPH
rain 1hr
cm
rain 24hr
cm
rain mn
cm
humidity
%
barometer
mb
20260502130505 26 192 11.3 27.4 0.00 0.00 0.00 31 1015.2
20260502123506 26 204 9.7 20.9 0.00 0.00 0.00 31 1015.5
20260502123006 26 211 11.3 19.3 0.00 0.00 0.00 31 1015.5
20260502122506 27 199 8.0 22.5 0.00 0.00 0.00 29 1015.6
20260502122006 27 191 4.8 20.9 0.00 0.00 0.00 29 1015.7
20260502121506 27 180 4.8 11.3 0.00 0.00 0.00 32 1015.7
20260502121006 26 171 6.4 17.7 0.00 0.00 0.00 33 1015.7
20260502120506 26 164 9.7 17.7 0.00 0.00 0.00 32 1015.8
20260502115505 26 172 11.3 19.3 0.00 0.00 0.00 34 1015.8
20260502115006 26 163 9.7 30.6 0.00 0.00 0.00 32 1016.0
20260502114505 27 162 9.7 17.7 0.00 0.00 0.00 31 1016.0
20260502114005 27 163 9.7 22.5 0.00 0.00 0.00 30 1016.1
20260502113505 27 169 6.4 16.1 0.00 0.00 0.00 31 1016.2
20260502113005 26 181 3.2 16.1 0.00 0.00 0.00 31 1016.3
20260502112505 26 182 11.3 22.5 0.00 0.00 0.00 32 1016.3
20260502112005 26 179 12.9 19.3 0.00 0.00 0.00 31 1016.3
20260502111505 26 179 11.3 17.7 0.00 0.00 0.00 31 1016.3
20260502111005 26 159 9.7 16.1 0.00 0.00 0.00 31 1016.3
20260502110506 26 174 6.4 24.1 0.00 0.00 0.00 31 1016.4
20260502110006 26 177 4.8 12.9 0.00 0.00 0.00 33 1016.5
20260502105506 25 181 8.0 22.5 0.00 0.00 0.00 32 1016.5
20260502105006 25 179 12.9 20.9 0.00 0.00 0.00 30 1016.6
20260502104505 25 177 8.0 22.5 0.00 0.00 0.00 32 1016.6
20260502104005 25 180 6.4 16.1 0.00 0.00 0.00 35 1016.7
20260502103505 25 177 11.3 20.9 0.00 0.00 0.00 34 1016.7
20260502103005 25 173 12.9 17.7 0.00 0.00 0.00 34 1016.7
20260502102505 25 173 8.0 16.1 0.00 0.00 0.00 36 1016.8
20260502102005 25 172 8.0 17.7 0.00 0.00 0.00 36 1016.9
20260502101505 25 178 8.0 14.5 0.00 0.00 0.00 37 1016.9
20260502101005 25 175 6.4 16.1 0.00 0.00 0.00 37 1017.0
20260502100505 24 168 8.0 17.7 0.00 0.00 0.00 37 1017.1
20260502091506 22 161 6.4 12.9 0.00 0.00 0.00 43 1017.5
20260502091006 22 153 8.0 12.9 0.00 0.00 0.00 44 1017.5
20260502090506 22 157 4.8 11.3 0.00 0.00 0.00 45 1017.5
20260502071505 16 152 8.0 12.9 0.00 0.00 0.00 64 1018.3
20260502071005 16 149 8.0 12.9 0.00 0.00 0.00 65 1018.3
20260502070505 16 143 8.0 14.5 0.00 0.00 0.00 67 1018.4
20260502070005 15 145 4.8 12.9 0.00 0.00 0.00 68 1018.3
20260502065505 15 147 3.2 11.3 0.00 0.00 0.00 68 1018.4
20260502065007 15 146 6.4 16.1 0.00 0.00 0.00 68 1018.4
20260502064510 15 141 8.0 16.1 0.00 0.00 0.00 69 1018.4
20260502064005 14 140 9.7 16.1 0.00 0.00 0.00 70 1018.5
20260502063505 14 131 4.8 12.9 0.00 0.00 0.00 70 1018.5
20260502063005 14 134 8.0 11.3 0.00 0.00 0.00 70 1018.5
20260502062505 13 124 3.2 12.9 0.00 0.00 0.00 71 1018.5
20260502062005 13 127 4.8 12.9 0.00 0.00 0.00 71 1018.6
20260502061505 13 125 9.7 17.7 0.00 0.00 0.00 71 1018.6
20260502061005 13 126 6.4 16.1 0.00 0.00 0.00 71 1018.6
20260502060505 13 124 4.8 11.3 0.00 0.00 0.00 72 1018.7
20260502060005 13 119 6.4 12.9 0.00 0.00 0.00 72 1018.6
20260502055505 13 124 8.0 14.5 0.00 0.00 0.00 72 1018.7
20260502055006 13 127 8.0 12.9 0.00 0.00 0.00 72 1018.8
20260502054505 13 128 4.8 16.1 0.00 0.00 0.00 72 1018.8
20260502054005 13 131 3.2 12.9 0.00 0.00 0.00 73 1018.8
20260502053505 13 127 8.0 16.1 0.00 0.00 0.00 73 1018.8
20260502053005 13 133 1.6 12.9 0.00 0.00 0.00 73 1018.8
20260502052505 12 134 6.4 14.5 0.00 0.00 0.00 73 1018.8
20260502052005 12 138 6.4 12.9 0.00 0.00 0.00 74 1018.8
20260502051505 12 130 6.4 14.5 0.00 0.00 0.00 74 1018.8
20260502051005 12 134 4.8 14.5 0.00 0.00 0.00 74 1018.8
20260502050505 12 125 3.2 14.5 0.00 0.00 0.00 74 1018.7
20260502050005 12 130 4.8 14.5 0.00 0.00 0.00 75 1018.7
20260502045505 12 126 6.4 14.5 0.00 0.00 0.00 76 1018.7
20260502045006 12 121 6.4 12.9 0.00 0.00 0.00 76 1018.7
20260502044505 12 117 3.2 11.3 0.00 0.00 0.00 76 1018.7
20260502044005 12 109 3.2 12.9 0.00 0.00 0.00 76 1018.7
20260502043505 12 107 3.2 9.7 0.00 0.00 0.00 76 1018.7
20260502043005 12 94 3.2 9.7 0.00 0.00 0.00 76 1018.7
20260502042505 12 99 6.4 11.3 0.00 0.00 0.00 76 1018.7
20260502042005 12 94 3.2 9.7 0.00 0.00 0.00 76 1018.8
20260502041505 12 94 3.2 9.7 0.00 0.00 0.00 76 1018.8
20260502041005 12 84 3.2 8.0 0.00 0.00 0.00 76 1018.9
20260502040505 12 88 3.2 12.9 0.00 0.00 0.00 76 1018.9
20260502040005 12 101 1.6 8.0 0.00 0.00 0.00 76 1018.9
20260502035505 12 117 4.8 11.3 0.00 0.00 0.00 75 1019.0
20260502035006 12 119 3.2 6.4 0.00 0.00 0.00 75 1019.0
20260502034506 12 110 4.8 11.3 0.00 0.00 0.00 75 1019.1
20260502034005 12 103 3.2 11.3 0.00 0.00 0.00 75 1019.1
20260502033506 12 99 3.2 8.0 0.00 0.00 0.00 75 1019.1
20260502033006 12 103 1.6 9.7 0.00 0.00 0.00 75 1019.1
20260502032506 12 110 1.6 6.4 0.00 0.00 0.00 74 1019.2
20260502032006 12 108 1.6 6.4 0.00 0.00 0.00 74 1019.2
20260502031506 12 100 3.2 9.7 0.00 0.00 0.00 74 1019.2
20260502031006 12 89 3.2 11.3 0.00 0.00 0.00 74 1019.3
20260502030506 12 97 0.0 8.0 0.00 0.00 0.00 74 1019.3
20260502030006 12 93 1.6 9.7 0.00 0.00 0.00 74 1019.4
20260502025506 12 108 4.8 11.3 0.00 0.00 0.00 73 1019.4
20260502025007 12 108 4.8 11.3 0.00 0.00 0.00 74 1019.4
20260502024506 12 112 3.2 11.3 0.00 0.00 0.00 73 1019.5
20260502024006 12 118 4.8 9.7 0.00 0.00 0.00 73 1019.5
20260502023506 13 129 1.6 8.0 0.00 0.00 0.00 73 1019.5
20260502023006 13 126 1.6 11.3 0.00 0.00 0.00 72 1019.6
20260502022506 13 118 4.8 9.7 0.00 0.00 0.00 72 1019.7
20260502022006 13 107 1.6 12.9 0.00 0.00 0.00 72 1019.7
20260502021506 13 110 6.4 12.9 0.00 0.00 0.00 71 1019.8
20260502021006 13 110 1.6 12.9 0.00 0.00 0.00 71 1019.8
20260502020506 13 120 3.2 12.9 0.00 0.00 0.00 71 1019.9
20260502020006 13 129 4.8 9.7 0.00 0.00 0.00 71 1019.9
20260502015506 13 131 4.8 12.9 0.00 0.00 0.00 70 1019.9
20260502015007 13 124 4.8 12.9 0.00 0.00 0.00 71 1020.0
20260502014506 13 123 6.4 11.3 0.00 0.00 0.00 70 1020.0
20260502014006 13 114 3.2 12.9 0.00 0.00 0.00 70 1020.1
20260502013506 13 120 6.4 9.7 0.00 0.00 0.00 70 1020.1
20260502013006 13 112 6.4 14.5 0.00 0.00 0.00 69 1020.1
20260502012506 13 113 6.4 9.7 0.00 0.00 0.00 69 1020.2
20260502012005 13 119 0.0 11.3 0.00 0.00 0.00 69 1020.3
20260502011505 13 123 4.8 12.9 0.00 0.00 0.00 68 1020.3
20260502011005 13 125 4.8 12.9 0.00 0.00 0.00 68 1020.4
20260502010505 13 126 4.8 11.3 0.00 0.00 0.00 68 1020.5
20260502010005 13 123 6.4 11.3 0.00 0.00 0.00 69 1020.5
20260502005505 13 125 6.4 11.3 0.00 0.00 0.00 69 1020.6
20260502005006 13 124 6.4 11.3 0.00 0.00 0.00 69 1020.6
20260502004505 13 123 4.8 11.3 0.00 0.00 0.00 69 1020.6
20260502004005 13 124 4.8 8.0 0.00 0.00 0.00 69 1020.7
20260502003505 14 120 3.2 9.7 0.00 0.00 0.00 69 1020.7
20260502003005 14 116 3.2 8.0 0.00 0.00 0.00 68 1020.8
20260502002505 14 106 1.6 12.9 0.00 0.00 0.00 68 1020.8
20260502002005 14 103 3.2 11.3 0.00 0.00 0.00 67 1020.8
20260502001505 14 109 3.2 12.9 0.00 0.00 0.00 67 1020.9
20260502001005 14 106 4.8 9.7 0.00 0.00 0.00 67 1020.9
20260502000505 15 114 3.2 9.7 0.00 0.00 0.00 67 1021.0
20260502000005 15 115 4.8 11.3 0.00 0.00 0.00 66 1021.0
20260501235505 15 120 4.8 11.3 0.00 0.00 0.00 66 1021.0
20260501235006 15 114 6.4 12.9 0.00 0.00 0.00 66 1021.0
20260501234505 15 114 6.4 11.3 0.00 0.00 0.00 66 1021.0
20260501234005 15 115 3.2 11.3 0.00 0.00 0.00 66 1021.0
20260501233505 15 118 3.2 12.9 0.00 0.00 0.00 65 1021.0
20260501233005 15 118 4.8 16.1 0.00 0.00 0.00 65 1021.0
20260501232505 15 124 4.8 14.5 0.00 0.00 0.00 65 1021.1
20260501232005 15 126 6.4 12.9 0.00 0.00 0.00 65 1021.1
20260501231505 15 122 4.8 14.5 0.00 0.00 0.00 65 1021.1
20260501231005 15 123 6.4 14.5 0.00 0.00 0.00 65 1021.1
20260501230505 15 113 3.2 8.0 0.00 0.00 0.00 64 1021.2
20260501230005 15 121 4.8 14.5 0.00 0.00 0.00 64 1021.2
20260501225505 16 116 3.2 11.3 0.00 0.00 0.00 64 1021.2
20260501225006 16 108 4.8 12.9 0.00 0.00 0.00 64 1021.3
20260501224506 16 87 4.8 14.5 0.00 0.00 0.00 63 1021.3
20260501224005 16 86 1.6 11.3 0.00 0.00 0.00 63 1021.3
20260501223505 16 109 1.6 12.9 0.00 0.00 0.00 62 1021.3
20260501223005 16 123 4.8 12.9 0.00 0.00 0.00 62 1021.3
20260501222505 16 129 3.2 12.9 0.00 0.00 0.00 62 1021.4
20260501222005 16 120 3.2 12.9 0.00 0.00 0.00 62 1021.4
20260501221505 16 104 4.8 14.5 0.00 0.00 0.00 61 1021.4
20260501221005 16 105 3.2 19.3 0.00 0.00 0.00 61 1021.5
20260501220505 16 113 3.2 14.5 0.00 0.00 0.00 61 1021.5
20260501220005 16 120 3.2 19.3 0.00 0.00 0.00 61 1021.5
20260501215505 16 130 3.2 14.5 0.00 0.00 0.00 60 1021.6
20260501215006 17 123 4.8 12.9 0.00 0.00 0.00 60 1021.5
20260501214505 17 123 3.2 12.9 0.00 0.00 0.00 60 1021.5
20260501214005 17 116 8.0 16.1 0.00 0.00 0.00 60 1021.5
20260501213505 17 116 6.4 16.1 0.00 0.00 0.00 60 1021.5
20260501213005 17 108 3.2 14.5 0.00 0.00 0.00 59 1021.5
20260501212505 17 86 4.8 16.1 0.00 0.00 0.00 59 1021.6
20260501212005 17 85 1.6 12.9 0.00 0.00 0.00 59 1021.5
20260501211505 17 86 6.4 16.1 0.00 0.00 0.00 59 1021.6
20260501211006 17 106 4.8 14.5 0.00 0.00 0.00 58 1021.6
20260501210506 17 115 4.8 8.0 0.00 0.00 0.00 58 1021.6
20260501210006 17 117 1.6 12.9 0.00 0.00 0.00 57 1021.7
20260501205506 17 122 1.6 14.5 0.00 0.00 0.00 57 1021.6
20260501205007 18 115 3.2 12.9 0.00 0.00 0.00 56 1021.7
20260501204506 18 117 6.4 16.1 0.00 0.00 0.00 56 1021.7
20260501204006 18 109 6.4 11.3 0.00 0.00 0.00 56 1021.8
20260501203506 18 111 3.2 12.9 0.00 0.00 0.00 55 1021.8
20260501203005 18 112 4.8 14.5 0.00 0.00 0.00 55 1021.9
20260501202505 18 120 3.2 14.5 0.00 0.00 0.00 54 1021.8
20260501202005 18 125 4.8 14.5 0.00 0.00 0.00 55 1021.9
20260501201505 18 117 3.2 16.1 0.00 0.00 0.00 55 1021.9
20260501201005 18 121 4.8 12.9 0.00 0.00 0.00 54 1021.9
20260501200505 18 117 3.2 14.5 0.00 0.00 0.00 54 1022.0
20260501200005 18 121 6.4 14.5 0.00 0.00 0.00 54 1022.0
20260501195505 18 107 4.8 12.9 0.00 0.00 0.00 53 1022.0
20260501195006 18 118 4.8 9.7 0.00 0.00 0.00 53 1022.1
20260501194505 18 123 6.4 9.7 0.00 0.00 0.00 52 1022.0
20260501194005 18 127 4.8 14.5 0.00 0.00 0.00 52 1022.0
20260501193505 19 126 4.8 12.9 0.00 0.00 0.00 52 1022.0
20260501193005 19 131 4.8 14.5 0.00 0.00 0.00 51 1022.0
20260501192506 19 122 6.4 11.3 0.00 0.00 0.00 51 1022.0
20260501192006 19 117 3.2 12.9 0.00 0.00 0.00 51 1022.0
20260501191506 20 103 4.8 12.9 0.00 0.00 0.00 50 1022.0
20260501191006 20 113 4.8 12.9 0.00 0.00 0.00 50 1022.0
20260501190506 20 121 3.2 14.5 0.00 0.00 0.00 50 1022.0
20260501190005 20 123 3.2 9.7 0.00 0.00 0.00 49 1022.1
20260501185505 20 118 6.4 14.5 0.00 0.00 0.00 48 1022.1
20260501185006 20 123 3.2 19.3 0.00 0.00 0.00 48 1022.1
20260501184505 20 125 4.8 14.5 0.00 0.00 0.00 47 1022.1
20260501184005 20 132 4.8 12.9 0.00 0.00 0.00 47 1022.1
20260501183505 21 127 3.2 16.1 0.00 0.00 0.00 47 1022.1
20260501183005 21 126 8.0 11.3 0.00 0.00 0.00 46 1022.2
20260501182505 21 128 8.0 17.7 0.00 0.00 0.00 46 1022.2
20260501182005 21 134 6.4 11.3 0.00 0.00 0.00 46 1022.2
20260501181505 21 141 8.0 17.7 0.00 0.00 0.00 44 1022.3
20260501181005 21 140 4.8 11.3 0.00 0.00 0.00 44 1022.3
20260501180506 22 138 4.8 16.1 0.00 0.00 0.00 43 1022.3
20260501180006 22 134 4.8 14.5 0.00 0.00 0.00 43 1022.3
20260501175506 22 137 4.8 17.7 0.00 0.00 0.00 41 1022.2
20260501175007 22 143 6.4 16.1 0.00 0.00 0.00 41 1022.2
20260501174506 22 144 6.4 12.9 0.00 0.00 0.00 41 1022.2
20260501174006 23 137 6.4 14.5 0.00 0.00 0.00 40 1022.2
20260501173505 23 132 6.4 16.1 0.00 0.00 0.00 39 1022.2
20260501173006 23 136 9.7 16.1 0.00 0.00 0.00 39 1022.2
20260501172505 23 142 9.7 17.7 0.00 0.00 0.00 38 1022.2
20260501171505 23 141 4.8 12.9 0.00 0.00 0.00 38 1022.3
20260501171005 23 144 9.7 19.3 0.00 0.00 0.00 37 1022.3
20260501170505 23 145 11.3 20.9 0.00 0.00 0.00 37 1022.4
20260501170005 24 142 11.3 16.1 0.00 0.00 0.00 36 1022.4
20260501165505 24 135 8.0 14.5 0.00 0.00 0.00 36 1022.5
20260501165006 24 134 9.7 16.1 0.00 0.00 0.00 36 1022.5
20260501164505 24 136 6.4 17.7 0.00 0.00 0.00 35 1022.6
20260501164005 24 143 6.4 16.1 0.00 0.00 0.00 35 1022.7
20260501163505 25 151 9.7 16.1 0.00 0.00 0.00 34 1022.7
20260501163005 25 149 6.4 20.9 0.00 0.00 0.00 34 1022.8
20260501162505 25 145 6.4 19.3 0.00 0.00 0.00 33 1022.9
20260501162005 25 140 12.9 24.1 0.00 0.00 0.00 33 1023.0
20260501161505 25 141 6.4 19.3 0.00 0.00 0.00 33 1023.0
20260501161005 25 136 12.9 17.7 0.00 0.00 0.00 33 1023.1
20260501160505 25 147 6.4 17.7 0.00 0.00 0.00 33 1023.1
20260501160005 25 146 11.3 25.7 0.00 0.00 0.00 32 1023.2
20260501155506 25 143 9.7 20.9 0.00 0.00 0.00 33 1023.1
20260501155007 25 142 8.0 17.7 0.00 0.00 0.00 33 1023.2
20260501154506 25 140 11.3 16.1 0.00 0.00 0.00 32 1023.2
20260501154006 25 130 14.5 22.5 0.00 0.00 0.00 31 1023.3
20260501153506 25 120 4.8 19.3 0.00 0.00 0.00 32 1023.4
20260501153006 25 119 12.9 24.1 0.00 0.00 0.00 32 1023.5
20260501152506 25 129 11.3 24.1 0.00 0.00 0.00 32 1023.5
20260501152006 25 146 12.9 22.5 0.00 0.00 0.00 32 1023.6
20260501151506 25 149 9.7 17.7 0.00 0.00 0.00 33 1023.6
20260501151006 25 139 9.7 24.1 0.00 0.00 0.00 33 1023.7
20260501150506 25 116 8.0 24.1 0.00 0.00 0.00 32 1023.8